Погода в Заболотье

Россия / Костромская область     58°17′41″N   45°51′23″E
темп.,
°C
ветер,
м/с
пор.,
м/с
влажн.,
%
обл.,
%
осадки,
мм/ч
давл.,
гПа
погр.,
м
15 мая, сб
сб1500:00+15ююз2285100 0.0 101728
03:00+13ссв119695 0.4 101716
06:00+16в2693100 0.2 1016163
09:00+21ююв3771100 0.2 1014559
12:00+26ююв355494 0.0 10131276
15:00+28ю474574 0.0 10111976
18:00+22юз51275100 1.6 1011732
21:00+16ссв239649 2.6 101365
16 мая, вс
вс1600:00+15юв269831 0.3 1013126
03:00+14ю27977 0.3 1013149
06:00+17ююз39911 0.0 1013312
09:00+21ююз59625 0.0 10131134
12:00+24юз69415 0.0 10131929
15:00+24юз59410 0.0 10122305
18:00+22юз48548 0.0 10121103
21:00+17ююз2878100 0.4 1013188
17 мая, пн
пн1700:00+15юз310865 0.1 1014251
03:00+13юз210920 0.1 1015222
06:00+15зюз26831 0.0 1016246
09:00+20зюз34615 0.0 1017990
12:00+24зюз354763 0.0 10171694
15:00+25зюз35425 0.0 10172058
18:00+23зюз125640 0.0 101683
21:00+17юз007377 0.0 101711
18 мая, вт
вт1800:00+16вюв117675 0.0 101711
03:00+14вюв22817 0.0 101727
06:00+17вюв24735 0.0 1017142
09:00+24юв35571 0.0 1017649
12:00+28юв34390 0.0 10161598
15:00+29ююв35275 0.0 10153061
18:00+25юв384623 0.0 1014311
21:00+19ююв35700 0.0 101580
19 мая, ср
ср1900:00+16юв38660 0.0 1015121
03:00+15юв310720 0.0 1014174
06:00+18юв4116447 0.0 1014314
09:00+24юв51046100 0.0 1013534
12:00+28ююв593435 0.0 10121220
15:00+29юв693210 0.0 10113193
18:00+26юв6124315 0.0 10091156
21:00+22юв5156012 0.1 1008884